Location: Clifton Park
(41.4873°N, 81.8024°W)
Time: 04:20:36
(UTC+00:00)

Meteor 2-10 Rocket - Pass Details

Date: 21 January 2020
Orbit: 733 x 885 km, 81.2° (Epoch: 23 February)

Event Time Altitude Azimuth Distance (km) Brightness Sun altitude
Rises 00:28:47 0° 348° (NNW) 3,339 6.9 -22.4°
Reaches altitude 10° 00:31:14 10° 347° (NNW) 2,380 6.1 -22.9°
Maximum altitude 00:36:34 75° 263° (W) 806 3.6 -23.8°
Drops below altitude 10° 00:41:39 10° 179° (S) 2,273 6.0 -24.8°
Sets 00:43:56 0° 177° (S) 3,177 6.7 -25.2°
